Home   Weather   Petersburg   Past weeks

Flag for USA Past Weather in Petersburg, Indiana, USA — Yesterday and Last 2 Weeks

Now
42 °F

Overcast.


Feels Like: 39 °F
Forecast: 29 / 45 °F
Wind: 5 mph from North

Location: Huntingburg Airport

Current Time: Dec 2, 2016 at 1:22:58 pm

Latest Report: Dec 2, 2016 at 12:56 pm


Visibility: 10 mi

Pressure: 30.31 "Hg

Humidity: 62%

Dew Point: 30 °F

Location of PetersburgLocation

Past Weather in Petersburg — Graph

°F

Petersburg Temperature Yesterday

Maximum temperature yesterday: 46 °F (at 2:15 pm)
Minimum temperature yesterday: 28 °F (at 11:15 pm)
Average temperature yesterday: 39 °F

High & Low Weather Summary for the Past Weeks

 TemperatureHumidityPressure
High79 °F (Nov 17, 2:35 pm)100% (Nov 23, 10:04 pm)30.45 "Hg (Nov 23, 10:04 pm)
Low19 °F (Nov 21, 6:15 am)36% (Nov 17, 4:15 pm)29.65 "Hg (Nov 29, 10:56 pm)
Average44 °F69%30.31 "Hg
* Reported Nov 17 12:15 pm — Dec 2 12:15 pm, Petersburg, Weather by CustomWeather, © 2016

Note: Actual official high and low records may vary slightly from our data, if they occured in-between our weather recording intervals... More about our weather records

Advertising

Petersburg Weather History for the Previous 24 Hours

Scroll right to see more
 ConditionsComfort  
Time TempWeatherWind HumidityBarometerVisibility
12:15 pm
Fri, Dec 2
41 °FScattered clouds.6 mph66%30.42 "Hg10 mi
11:56 am42 °FScattered clouds.7 mph65%30.32 "Hg10 mi
11:35 am41 °FPassing clouds.7 mph66%30.42 "Hg10 mi
11:15 am39 °FPassing clouds.8 mph70%30.42 "Hg10 mi
10:56 am39 °FPassing clouds.5 mph76%30.33 "Hg10 mi
10:35 am39 °FSunny.6 mph81%30.42 "Hg10 mi
10:15 am37 °FSunny.3 mph87%30.42 "Hg9 mi
9:56 am34 °FSunny.No wind92%30.30 "Hg7 mi
9:15 am28 °FSunny.No wind93%30.42 "Hg5 mi
8:56 am28 °FIce fog.No wind93%30.28 "Hg4 mi
8:35 am27 °FSunny.No wind93%30.42 "Hg4 mi
8:15 am27 °FSunny.No wind93%30.42 "Hg2 mi
7:56 am25 °FIce fog.No wind96%30.26 "Hg3 mi
7:35 am25 °FClear.No wind93%30.42 "Hg4 mi
7:15 am25 °FClear.No wind100%30.42 "Hg6 mi
6:56 am26 °FIce fog.No wind96%30.24 "Hg5 mi
6:35 am25 °FClear.No wind93%30.42 "Hg5 mi
6:15 am25 °FClear.No wind93%30.42 "Hg5 mi
5:56 am24 °FIce fog.3 mph96%30.23 "Hg5 mi
5:35 am25 °FClear.3 mph93%30.42 "Hg6 mi
5:15 am25 °FClear.No wind93%30.42 "Hg5 mi
4:56 am26 °FIce fog.No wind92%30.23 "Hg5 mi
4:35 am27 °FClear.No wind93%30.42 "Hg5 mi
3:56 am26 °FIce fog.3 mph92%30.22 "Hg6 mi
3:35 am27 °FClear.3 mph93%30.42 "Hg7 mi
3:15 am27 °FClear.No wind93%30.42 "Hg7 mi
2:56 am26 °FClear.No wind92%30.21 "Hg8 mi
2:35 am27 °FClear.3 mph93%30.42 "Hg8 mi
2:15 am27 °FClear.3 mph93%30.42 "Hg8 mi
1:56 am27 °FClear.No wind92%30.18 "Hg9 mi
1:35 am27 °FClear.No wind93%30.42 "Hg10 mi
1:15 am27 °FClear.No wind93%30.42 "Hg10 mi
12:56 am27 °FClear.No wind92%30.17 "Hg10 mi
12:35 am27 °FClear.No wind93%30.42 "Hg10 mi
12:15 am28 °FClear.No wind93%30.42 "Hg10 mi
11:56 pm
Thu, Dec 1
29 °FClear.No wind89%30.17 "Hg10 mi
11:35 pm28 °FClear.3 mph100%30.42 "Hg10 mi
11:15 pm28 °FClear.No wind100%30.42 "Hg10 mi
10:56 pm29 °FClear.No wind93%30.15 "Hg10 mi
10:35 pm30 °FClear.No wind93%30.42 "Hg10 mi
10:15 pm34 °FClear.No wind81%30.42 "Hg10 mi
9:56 pm34 °FClear.No wind82%30.14 "Hg10 mi
9:35 pm36 °FClear.No wind75%30.42 "Hg10 mi
8:56 pm35 °FClear.3 mph78%30.14 "Hg10 mi
8:35 pm36 °FClear.5 mph75%30.42 "Hg10 mi
8:15 pm36 °FClear.5 mph75%30.42 "Hg10 mi
7:56 pm34 °FClear.5 mph82%30.13 "Hg10 mi
7:35 pm36 °FClear.6 mph75%30.42 "Hg10 mi
7:15 pm37 °FClear.3 mph70%30.42 "Hg10 mi
6:56 pm37 °FClear.3 mph73%30.11 "Hg10 mi
6:35 pm37 °FClear.3 mph70%30.42 "Hg10 mi
6:15 pm37 °FClear.6 mph75%30.42 "Hg10 mi
5:56 pm38 °FClear.7 mph73%30.10 "Hg10 mi
5:35 pm39 °FClear.8 mph70%30.42 "Hg10 mi
5:15 pm41 °FSunny.9 mph66%30.42 "Hg10 mi
4:56 pm42 °FSunny.9 mph62%30.09 "Hg10 mi
4:35 pm43 °FPassing clouds.12 mph61%30.42 "Hg10 mi
3:56 pm45 °FPartly sunny.9 mph58%30.08 "Hg10 mi
3:35 pm45 °FPassing clouds.10 mph57%30.42 "Hg10 mi
3:15 pm45 °FSunny.13 mph57%30.42 "Hg10 mi
2:56 pm45 °FPassing clouds.13 mph56%30.06 "Hg10 mi
2:35 pm45 °FScattered clouds.13 mph57%30.42 "Hg10 mi
2:15 pm46 °FPartly sunny.13 mph50%30.42 "Hg10 mi
1:56 pm46 °FPassing clouds.15 mph51%30.06 "Hg10 mi
1:35 pm45 °FScattered clouds.9 mph53%30.42 "Hg10 mi
Weather by CustomWeather, © 2016

See weather overviewHow to use our weather pages